Commit Graph
415 Commits
Author SHA1 Message Date
Jordan Petridis 35f7464540 Use a gitlab-ci template instead of script duplication. 2017-12-05 07:47:07 +02:00
Jordan Petridis c8c0699d9c gitlab-ci tweak. 2017-12-05 07:37:43 +02:00
Jordan Petridis 0835b5ed4f flatpak manifest update 2017-12-05 06:22:59 +02:00
Jordan Petridis ca2ad9b2da rustfmt fix?. 2017-12-04 14:32:38 +02:00
Jordan Petridis 276169e43d Minor cleanup of nested match/if let statements into using and_then(). 2017-12-04 14:32:16 +02:00
Jordan Petridis ad1d9a155e Readme typo fix. 2017-12-02 09:03:21 +02:00
Jordan Petridis 8bd48a09a6 Groupd stack manipulation functions into content module. 2017-12-02 08:58:28 +02:00
Jordan Petridis 7727bc5ec3 Remove unnecessary Arc. 2017-12-02 01:46:37 +02:00
Jordan Petridis 74a1aae168 Upgraded diesel to 0.99 and switched from the git master into crated.io.
Also did a cargo upgrade of all the dependancies.
Notable upgrades are r2d2, lazystatic 1.0, loggerv 0.6 and rss 1.2
2017-12-02 01:39:28 +02:00
Jordan Petridis 9312366f62 Enable more lints. 2017-12-02 00:06:42 +02:00
Jordan Petridis 8d63db047a Temporary removed unused Content.fields. 2017-12-01 07:30:28 +02:00
Jordan Petridis 0359e9dd35 Convert EpisodeWidget into a Composed struct. 2017-12-01 07:13:41 +02:00
Jordan Petridis 91ac2c6445 Minor cleanups. 2017-12-01 06:40:32 +02:00
Jordan Petridis 2d4acc3ba3 Tweaked stack transition effects. 2017-12-01 06:21:48 +02:00
Jordan Petridis fb6fc68d23 Fix empty view. 2017-12-01 06:00:06 +02:00
Jordan Petridis 3fca086d14 Renamed stack children. 2017-12-01 05:32:47 +02:00
Jordan Petridis dcc541d832 Added a PodcastChild struct and groupd some flowbox_child methods. 2017-12-01 04:22:26 +02:00
Jordan Petridis 300fc3467d Remove more stuff. 2017-12-01 03:50:23 +02:00
Jordan Petridis 326ee75cd8 Remove old implementation. 2017-12-01 02:57:55 +02:00
Jordan Petridis b4b2f24c77 Use content struct instead of plain stack. 2017-12-01 01:30:19 +02:00
Jordan Petridis 5414dbdb37 Wire and use the new Header struct instead. 2017-12-01 01:20:49 +02:00
Jordan Petridis dd0034327b Add Content Struct. 2017-12-01 01:12:25 +02:00
Jordan Petridis 774e5b38a0 Add EmptyView Struct. 2017-12-01 01:03:10 +02:00
Jordan Petridis f1f4d10fe3 Add PopulatedView struct. 2017-12-01 01:00:07 +02:00
Jordan Petridis 84c918bbd5 Fix bug where the played button will always be shown by setting default state to not visible. 2017-11-30 21:39:21 +02:00
Jordan Petridis 94879b4256 Move get_pixbuf_from_path into hammond_gtk/src/utils.rs module. 2017-11-30 21:38:21 +02:00
Jordan Petridis bf240a00f4 Make a PodcastWidget Struct type. 2017-11-30 21:19:03 +02:00
Jordan Petridis b32e35c574 Rename podcasts_view module. 2017-11-30 21:10:05 +02:00
Jordan Petridis 1fbcfa47ac Refactor Headerbar into a Wrapped struct type. 2017-11-30 21:02:26 +02:00
Jordan Petridis 13e47e9b4e Version bump. 0.2.0 2017-11-28 10:46:03 +02:00
Jordan Petridis 13751e3708 Tweak gresource initialization. 2017-11-28 10:27:43 +02:00
Jordan Petridis c92e40e3cf Run download cleaner on startup. Closes #3. 2017-11-28 10:23:19 +02:00
Jordan Petridis 2051f0f58e Enable some extra clippy warnings. 2017-11-28 09:50:30 +02:00
Jordan Petridis c07215d357 Set hammond-data to build with Deny missing_docs. 2017-11-28 09:44:26 +02:00
Jordan Petridis e4a7a7becf Add module Doc comments. 2017-11-28 09:38:05 +02:00
Jordan Petridis 7dd8755bcb Document hammond-data/src/lib.rs xdg_dirs module. 2017-11-28 09:24:12 +02:00
Jordan Petridis 76f9f36609 Document Source Model. 2017-11-28 09:01:38 +02:00
Jordan Petridis 4d669ef297 Document Podcast Model. 2017-11-28 08:40:27 +02:00
Jordan Petridis 3707b70b41 Document Episode Model. 2017-11-28 08:25:04 +02:00
Jordan Petridis d81f9c6ad7 Fixed stable unit tests. 2017-11-28 04:42:15 +02:00
Jordan Petridis 34e808182c Documented a bit hammond-data/src/feed.rs. 2017-11-27 06:06:14 +02:00
Jordan Petridis c4030e51df Added some doc comments in hammond-data/src/utils.rs. 2017-11-27 05:25:16 +02:00
Jordan Petridis cb65782829 Extended the NewModel builder and added a bunch of unit tests. 2017-11-27 04:32:21 +02:00
Jordan Petridis ee4f08c5cf Implemented a BuildPattern for NewModels. Swiched stuff to pub(crate).
Added a Constructor for NewModels in order to make their fields private.
Also added getter methods that are mainly used in Unit tests.
2017-11-26 23:30:56 +02:00
Jordan Petridis 9e03aaae27 Upgrade gtk-rs crates. 2017-11-26 21:25:46 +02:00
Jordan Petridis 866904a687 Use generic IntoIterator instead of &[foo] slices. 2017-11-26 07:03:21 +02:00
Jordan Petridis 9d0df9de46 Tweak cargo privacy settings. 2017-11-26 06:21:14 +02:00
Jordan Petridis 7eff93ecf1 Remove rand from the downloader. 2017-11-26 03:47:43 +02:00
Jordan Petridis 6336f7cac1 Moved update funtions into a Trait and impl for NewModels. 2017-11-26 00:56:38 +02:00
Jordan Petridis 39dff5e27a Moved insert functions into an Insert trait and implemented it for each NewModel. 2017-11-26 00:40:03 +02:00